Temperature
11 10 9 10 11 11 12 12 11 12 12 11 11 11 11 12 11 11 11 11 10 10 9 9 8 8 8 8 8 8 8 8 7 7 7 7 7 7 7 7 8 8 8 8
10 9 10 11 11 11 11 10 11 11 11 11 10 10 11 11 11 11 11 11 10 10 9 9 8 8 8 7 7 7 7 7 7 7 6 6 6 6 7 7 7 7 7 7
9 9 10 10 10 10 10 10 10 10 10 10 9 9 10 11 11 11 11 11 10 10 9 8 8 7 7 7 7 7 7 7 6 6 6 6 6 6 6 6 6 6 6 6
9 10 10 9 9 9 9 9 10 9 8 8 9 7 9 10 10 10 10 10 10 10 9 8 8 7 7 7 7 6 6 6 6 6 6 6 6 6 6 6 6 6 6 5
8 8 8 8 8 9 8 9 9 9 8 7 8 7 8 10 9 10 10 10 10 9 9 8 8 7 7 7 6 6 6 6 6 5 5 5 5 5 5 5 5 5 5 5
7 8 8 8 8 9 8 8 8 8 7 6 7 7 8 9 10 10 9 10 9 9 8 8 7 7 6 6 6 6 6 5 5 5 5 5 5 5 5 5 5 5 4 4
7 7 7 8 7 7 7 6 6 6 5 6 8 8 7 9 9 9 9 9 9 8 7 7 7 6 6 6 5 5 5 5 5 4 4 4 4 4 4 4 4 4 4 4
7 7 7 7 7 7 6 6 6 6 6 7 8 7 8 8 8 9 9 8 8 7 7 6 6 6 5 5 5 5 5 4 4 4 4 4 4 4 4 4 4 3 4 4
6 6 7 7 7 7 6 6 7 6 6 5 7 8 8 8 8 7 8 7 7 6 6 6 5 5 5 5 4 4 4 4 4 4 4 3 3 3 3 3 3 3 3 3
6 5 6 6 6 6 6 6 5 5 5 6 7 7 7 7 7 7 6 6 6 6 6 5 5 5 4 4 4 4 4 4 4 3 3 3 3 3 3 3 3 3 3 3
6 4 4 5 4 4 5 5 5 5 5 5 6 6 7 7 7 6 6 6 6 6 5 5 4 4 4 4 4 4 3 3 3 3 3 3 3 3 2 2 2 2 2 2
5 4 3 4 4 4 5 5 4 4 4 5 5 5 6 6 6 6 6 6 6 5 5 4 4 4 3 3 3 3 3 3 3 3 3 3 2 2 2 2 2 2 2 2
4 3 3 3 3 3 3 4 3 3 3 4 4 5 5 5 5 6 5 5 5 5 4 4 3 3 3 3 3 3 3 3 3 2 2 2 2 2 2 2 1 1 1 1
4 2 2 3 4 2 2 2 2 2 2 3 4 4 5 5 5 5 5 5 5 4 4 3 3 3 3 3 2 2 2 2 2 2 2 2 2 2 1 1 1 1 1 1
2 2 2 2 3 3 2 2 2 1 2 2 3 4 5 4 4 5 5 4 4 3 3 3 2 2 2 2 2 2 2 2 2 2 1 1 1 1 1 1 1 1 1 0
1 1 1 1 2 2 2 2 2 2 2 2 3 3 4 5 5 4 4 4 3 3 3 2 2 2 2 2 2 2 1 1 1 1 1 1 1 1 1 1 1 0 0 0
0 0 1 2 2 1 1 1 1 1 1 2 2 3 4 3 3 3 4 3 3 3 2 2 2 2 2 1 1 1 1 1 1 1 0 0 0 0 0 0 0 0 -0 -0
-1 -0 0 1 1 1 2 2 2 1 1 1 2 2 3 3 3 3 3 3 3 2 2 2 2 2 1 1 1 1 1 0 0 0 0 0 0 0 -0 -0 -0 -0 -1 -1
-1 -0 0 1 1 1 2 2 1 1 1 1 1 2 2 3 2 2 3 3 3 2 2 2 1 1 1 1 0 0 0 -0 -0 -0 -0 -0 -0 -0 -0 -1 -1 -1 -1 -1
-1 -1 -0 0 1 1 2 1 1 1 0 1 1 1 1 1 0 1 2 2 2 2 1 1 1 1 0 0 -0 -0 -0 -1 -0 -0 -0 -0 -1 -1 -1 -1 -1 -1 -1 -1
-1 -1 -1 0 1 1 1 1 1 1 1 2 2 1 1 0 1 1 2 2 1 1 1 1 1 0 -0 -0 -1 -1 -1 -1 -1 -1 -1 -1 -1 -1 -1 -1 -1 -2 -2 -2
-1 -1 -1 -0 0 1 -0 0 0 1 2 2 2 2 1 1 1 1 1 1 1 1 1 0 0 -0 -0 -1 -1 -1 -1 -1 -1 -1 -1 -1 -1 -1 -2 -2 -2 -2 -2 -2
-1 -0 -0 -0 0 1 1 1 2 2 2 1 1 1 1 0 0 0 0 0 0 0 -0 -0 -0 -0 -1 -1 -1 -1 -1 -2 -2 -2 -2 -2 -2 -2 -2 -2 -2 -2 -2 -3
-1 -1 -1 -1 -1 1 1 1 1 1 1 1 1 1 0 -0 -0 -0 -1 -1 -0 -0 -1 -1 -1 -1 -1 -1 -1 -2 -2 -2 -2 -2 -2 -2 -2 -2 -2 -3 -3 -3 -3 -3
-1 -2 -2 -2 -1 0 1 1 1 1 1 1 1 0 0 -0 -0 -1 -1 -1 -1 -1 -1 -1 -1 -1 -1 -2 -2 -2 -2 -2 -2 -2 -2 -2 -3 -3 -3 -3 -3 -3 -3 -3
-1 -2 -2 -1 -0 -0 0 1 1 1 1 0 0 0 -0 -0 -1 -1 -1 -1 -1 -1 -2 -2 -2 -2 -2 -2 -2 -2 -2 -3 -3 -3 -3 -3 -3 -3 -3 -3 -3 -3 -3 -3
Wind_Speed
4 4 5 5 6 6 6 6 6 5 1 4 8 9 8 6 7 7 7 7 7 6 5 5 6 6 5 5 5 5 5 4 4 2 2 2 1 1 2 3 4 4 4 4
3 6 5 4 3 5 6 7 7 3 1 2 6 10 7 7 8 8 8 7 7 6 5 5 6 5 5 5 5 5 5 5 4 3 2 1 1 1 2 2 3 3 3 3
5 2 2 3 3 5 6 6 6 5 4 4 5 8 8 7 7 7 6 6 6 7 7 6 6 6 5 5 5 4 4 4 4 4 3 2 2 1 1 2 1 2 2 2
4 4 3 4 4 5 5 3 4 4 3 4 3 5 5 5 6 8 8 7 6 7 7 6 5 5 5 5 4 4 4 4 4 4 4 4 3 2 2 2 2 1 2 2
2 2 4 4 4 4 2 2 4 4 5 5 5 5 6 5 6 6 6 6 5 6 6 6 5 5 5 5 4 4 4 4 4 4 4 4 3 2 2 2 2 2 1 2
4 2 2 3 2 2 1 2 3 4 2 5 7 7 5 4 5 4 4 4 4 5 4 4 5 5 5 5 4 4 4 4 4 4 4 4 4 3 3 2 2 2 1 1
4 5 3 2 2 2 2 1 1 2 3 6 5 5 5 2 1 3 3 3 4 4 4 4 5 5 5 5 4 4 5 4 4 4 4 4 4 4 4 4 3 2 2 1
3 3 5 3 3 3 5 4 3 3 3 2 2 6 4 1 3 4 4 4 4 4 3 3 4 5 4 5 4 4 4 4 4 4 4 3 3 2 2 3 3 3 3 2
2 1 3 2 2 2 3 5 2 2 3 3 5 4 2 2 2 3 3 4 4 3 3 3 3 4 4 4 4 4 4 3 4 4 3 3 3 3 2 2 2 2 2 2
1 2 2 3 2 4 3 1 1 3 3 4 5 5 4 4 4 4 3 3 3 3 3 2 2 3 3 3 3 3 4 3 3 3 3 3 3 3 2 2 2 2 2 2
1 2 1 2 5 5 4 3 3 3 4 3 4 3 1 2 4 4 3 3 3 3 3 2 2 3 3 3 2 2 3 3 3 3 3 2 3 2 3 3 3 3 2 2
2 1 3 3 1 1 3 4 5 4 4 4 3 4 3 4 4 4 2 2 2 2 2 2 1 2 2 2 2 2 2 2 2 2 2 2 3 3 3 3 3 3 3 2
2 2 1 2 1 1 2 3 4 2 2 4 4 5 1 3 3 2 2 1 1 1 1 2 1 1 1 1 1 2 2 2 2 2 2 2 3 3 3 3 2 2 3 3
2 3 5 5 2 2 4 6 6 5 5 6 8 8 5 3 1 1 0 1 1 1 1 1 1 1 1 1 1 1 2 2 2 2 3 3 3 3 3 3 2 3 3 3
2 4 5 7 6 4 6 8 9 10 10 8 8 9 8 5 4 2 1 1 0 0 0 1 1 1 1 1 1 1 2 2 2 3 3 3 3 2 2 3 3 3 3 3
2 3 3 6 6 6 9 10 11 12 11 12 11 12 8 5 3 2 2 1 2 2 2 2 2 2 2 2 2 2 2 2 2 3 3 3 2 2 3 3 3 3 3 3
3 3 2 4 4 4 9 10 12 9 9 9 12 11 5 4 3 3 2 2 3 3 2 2 2 3 3 3 3 3 3 2 3 3 3 3 3 3 3 3 3 3 3 3
4 4 3 2 2 7 7 3 7 8 9 9 8 7 5 4 3 2 2 3 3 2 2 2 2 2 2 3 3 3 3 3 3 3 3 3 3 3 3 3 3 3 3 3
4 5 3 3 4 7 4 2 3 5 6 6 9 7 5 3 3 4 2 1 2 2 2 2 2 2 2 3 3 2 3 3 3 3 3 3 3 4 4 4 4 3 3 3
2 3 3 3 4 5 3 2 2 2 4 3 4 6 4 2 3 4 1 0 1 2 2 2 2 2 2 3 2 3 3 3 4 4 4 3 4 4 4 4 3 3 3 3
4 4 7 7 5 6 2 2 3 2 5 2 2 3 3 4 5 2 1 2 2 2 2 2 2 3 3 3 2 3 4 5 4 3 3 3 3 3 3 3 3 3 2 2
7 6 6 5 6 6 2 4 4 4 1 1 1 1 2 3 3 3 3 3 3 3 3 3 3 3 3 3 3 4 5 4 3 3 3 3 3 3 3 3 3 3 3 3
6 6 4 5 6 2 4 4 3 1 1 2 1 2 1 2 3 4 4 4 3 3 3 3 3 3 3 3 3 5 4 3 3 3 3 3 2 2 2 3 3 3 3 3
4 3 3 4 5 4 4 3 3 2 3 2 2 2 2 3 4 4 4 4 4 4 4 3 3 3 4 3 3 4 3 3 3 3 3 3 2 2 2 2 3 3 3 3
3 4 4 6 6 5 5 5 4 3 3 3 3 3 3 4 5 5 5 5 4 4 4 3 3 4 5 4 3 3 3 3 3 3 3 3 3 2 2 2 3 3 4 4
4 5 6 6 5 4 4 3 3 3 4 4 4 4 3 4 5 5 5 5 4 4 3 3 4 4 4 4 4 3 3 3 3 3 3 2 2 2 2 2 1 2 3 3
Wind_Direction
192 211 218 224 229 260 284 282 273 274 194 226 243 252 246 226 222 219 214 202 192 185 165 149 145 145 144 141 144 143 139 135 130 130 132 124 110 103 94 84 90 89 79 70
203 228 244 263 272 275 271 271 278 288 150 263 269 267 253 233 224 215 210 202 191 180 168 160 153 153 153 150 151 148 152 151 144 144 144 148 137 133 114 91 89 91 84 76
223 237 270 254 249 254 256 255 269 285 313 263 273 275 235 228 220 213 214 206 189 182 181 176 169 167 160 156 162 160 160 152 147 137 127 117 97 85 101 123 122 95 95 92
248 254 246 238 253 260 263 294 287 285 286 266 231 281 253 221 211 210 206 206 199 185 176 172 173 167 160 155 154 157 159 156 153 145 152 165 167 175 191 162 150 130 120 107
230 254 250 247 251 257 254 307 290 273 257 276 240 248 265 214 221 214 198 193 187 175 170 171 168 163 155 146 152 162 160 164 158 163 169 176 178 167 144 142 145 143 135 115
250 277 280 258 261 265 260 281 271 262 247 259 228 216 268 222 211 188 170 165 155 151 153 158 155 144 143 141 150 162 161 172 171 174 179 186 183 168 157 167 169 166 163 142
236 219 202 242 216 199 199 163 251 227 220 238 214 212 245 243 83 131 138 146 139 131 135 137 143 142 145 147 154 162 163 170 174 176 187 192 184 179 177 180 179 179 184 188
234 226 183 198 215 200 200 194 201 234 239 260 219 227 233 158 99 85 106 115 113 126 138 139 148 149 154 159 167 169 175 177 176 180 189 185 177 177 182 181 180 190 196 197
256 240 130 173 232 249 206 216 242 290 291 275 240 228 226 172 144 142 135 138 151 150 138 137 140 144 155 163 173 175 179 182 181 183 182 181 177 181 189 189 183 194 190 192
288 274 181 160 213 252 246 243 202 206 241 259 247 232 227 185 187 172 155 148 153 147 141 143 142 144 152 159 170 171 174 178 179 175 184 189 185 186 185 184 199 203 200 192
261 228 209 174 200 202 197 206 213 233 247 244 268 264 8 132 140 139 142 143 136 143 149 151 160 155 153 145 152 163 169 171 172 176 183 182 186 190 188 195 204 199 195 193
200 222 239 217 195 262 226 216 191 207 246 235 255 271 16 64 75 94 107 116 120 117 138 138 135 135 140 153 162 158 168 177 180 178 185 190 186 189 197 203 204 194 197 202
157 175 234 252 267 257 253 246 217 210 262 246 243 257 42 55 64 77 99 109 128 130 133 131 124 130 156 178 182 178 180 179 177 173 187 194 192 194 203 206 205 203 203 208
183 198 208 224 232 181 225 233 219 207 224 243 237 253 270 281 299 319 298 188 147 134 133 137 153 182 217 216 200 194 199 184 181 181 196 204 206 205 204 202 204 214 213 216
173 224 235 252 268 261 246 239 221 217 223 235 252 256 264 272 257 261 245 228 280 242 228 211 208 213 221 227 217 210 216 206 195 198 208 216 215 209 203 202 209 220 224 230
190 237 253 259 256 259 262 248 232 231 235 243 259 268 269 276 269 268 252 227 245 261 267 262 243 229 224 224 220 219 226 215 203 212 218 212 208 209 208 212 214 219 227 228
193 195 235 262 253 278 262 238 227 227 226 222 240 251 265 266 263 265 263 241 247 251 260 264 253 235 233 230 220 220 227 228 215 220 222 212 204 211 219 221 216 219 228 232
183 198 218 256 248 240 244 219 203 220 237 226 238 257 264 246 261 277 263 246 254 252 256 260 256 249 237 232 224 218 219 222 221 223 223 216 208 215 219 219 222 222 226 227
199 193 214 218 242 261 253 211 179 201 255 235 237 253 266 262 307 287 267 222 240 255 247 249 254 257 243 232 224 217 224 221 220 224 229 223 212 212 215 219 223 223 219 230
194 191 211 225 241 246 244 168 142 133 263 265 228 240 249 207 257 266 312 9 298 301 279 264 267 261 245 234 213 214 228 225 230 233 235 229 219 214 215 221 226 228 220 227
180 196 215 230 242 262 260 158 127 179 246 285 230 231 219 212 233 264 321 327 311 296 284 266 256 251 247 233 213 225 228 231 237 240 239 232 224 221 218 224 228 218 221 220
186 191 200 204 226 248 172 144 180 219 263 295 302 243 213 232 268 298 306 299 294 286 281 267 254 259 254 236 225 237 238 238 229 230 234 231 225 226 222 215 223 211 201 208
201 201 195 201 217 238 172 194 221 239 267 270 271 284 245 252 265 281 288 288 280 276 276 271 259 266 263 244 232 240 250 238 223 221 228 227 227 225 223 216 212 206 200 202
220 202 217 255 259 249 228 233 251 263 255 259 257 262 257 261 271 281 283 282 279 279 272 269 260 261 268 261 248 243 246 233 217 221 223 214 210 223 224 227 211 205 204 205
209 181 212 244 261 273 258 242 244 255 260 268 271 254 245 255 271 273 276 273 272 276 272 264 253 254 263 266 261 251 237 218 219 219 215 210 212 210 217 229 224 219 216 211
212 202 211 232 227 223 245 239 242 253 261 263 265 274 263 243 259 270 270 268 267 270 269 263 258 257 260 258 260 251 233 215 209 218 216 209 206 210 207 208 251 256 231 222
Height
1486 1489 1488 1486 1485 1484 1483 1483 1484 1481 1481 1484 1485 1484 1483 1483 1484 1484 1485 1487 1488 1490 1493 1494 1495 1496 1497 1498 1499 1500 1500 1501 1502 1503 1504 1505 1506 1507 1509 1510 1511 1512 1513 1514
1486 1487 1484 1483 1483 1484 1484 1486 1485 1483 1481 1484 1484 1482 1479 1478 1479 1480 1482 1483 1485 1488 1490 1491 1493 1494 1494 1495 1496 1497 1498 1499 1500 1501 1503 1504 1504 1505 1506 1507 1508 1510 1510 1511
1484 1485 1483 1483 1484 1486 1485 1487 1486 1486 1484 1483 1485 1483 1477 1473 1475 1477 1478 1480 1482 1484 1486 1488 1489 1491 1492 1493 1494 1495 1496 1496 1498 1499 1501 1502 1503 1503 1504 1505 1506 1507 1508 1509
1483 1483 1483 1484 1485 1485 1487 1485 1485 1486 1491 1491 1486 1492 1476 1471 1472 1473 1475 1476 1478 1480 1482 1484 1486 1488 1489 1490 1492 1493 1493 1494 1495 1497 1498 1499 1499 1500 1501 1502 1503 1504 1506 1506
1484 1484 1484 1485 1485 1485 1486 1486 1486 1487 1490 1492 1487 1492 1479 1470 1472 1471 1471 1473 1475 1477 1479 1481 1483 1485 1487 1488 1489 1490 1491 1492 1493 1494 1495 1496 1497 1498 1499 1500 1500 1502 1503 1503
1484 1484 1485 1485 1485 1485 1486 1487 1487 1488 1491 1498 1486 1488 1480 1471 1467 1467 1469 1471 1473 1475 1477 1479 1481 1482 1484 1485 1487 1488 1488 1489 1491 1491 1492 1493 1494 1495 1496 1497 1497 1498 1499 1500
1484 1483 1484 1485 1486 1487 1488 1493 1497 1497 1498 1493 1477 1481 1478 1467 1464 1465 1468 1469 1471 1473 1475 1477 1478 1479 1481 1482 1484 1485 1486 1487 1488 1489 1490 1491 1492 1493 1493 1494 1494 1495 1496 1497
1484 1484 1483 1484 1485 1487 1488 1490 1497 1497 1490 1482 1478 1479 1472 1465 1465 1465 1467 1469 1471 1473 1474 1476 1477 1477 1479 1480 1481 1482 1483 1484 1485 1486 1487 1488 1489 1490 1491 1491 1492 1493 1494 1494
1484 1483 1482 1483 1484 1485 1486 1489 1487 1493 1490 1491 1479 1471 1468 1465 1465 1466 1467 1469 1471 1472 1474 1475 1476 1477 1477 1478 1479 1480 1481 1482 1483 1483 1484 1485 1486 1487 1488 1489 1489 1490 1491 1492
1482 1487 1484 1484 1486 1486 1486 1487 1491 1494 1495 1489 1475 1470 1470 1466 1465 1466 1467 1468 1470 1472 1473 1474 1475 1476 1477 1477 1478 1478 1479 1480 1480 1481 1482 1482 1483 1484 1485 1486 1487 1487 1488 1488
1483 1489 1488 1486 1487 1487 1487 1489 1489 1490 1488 1488 1483 1476 1464 1463 1463 1465 1466 1468 1469 1471 1472 1473 1474 1474 1475 1476 1476 1477 1477 1477 1478 1478 1479 1479 1480 1481 1482 1483 1484 1484 1484 1485
1483 1487 1488 1486 1484 1484 1484 1484 1488 1493 1489 1485 1485 1480 1465 1464 1463 1464 1466 1468 1469 1470 1471 1472 1472 1473 1473 1474 1474 1474 1475 1475 1475 1476 1476 1476 1477 1478 1479 1479 1480 1481 1481 1481
1484 1489 1491 1487 1490 1488 1487 1485 1486 1489 1490 1488 1486 1479 1467 1465 1465 1466 1467 1468 1469 1469 1470 1470 1471 1471 1471 1472 1472 1472 1473 1473 1473 1473 1473 1474 1474 1475 1475 1476 1477 1477 1477 1478
1483 1487 1489 1486 1481 1485 1487 1486 1486 1489 1490 1485 1479 1473 1469 1467 1466 1466 1467 1467 1468 1468 1468 1468 1469 1469 1469 1469 1469 1470 1470 1470 1470 1470 1470 1471 1471 1472 1472 1473 1473 1474 1474 1474
1482 1485 1484 1481 1479 1481 1482 1482 1483 1485 1482 1482 1473 1470 1466 1465 1465 1465 1465 1465 1466 1466 1466 1466 1466 1466 1467 1467 1467 1467 1467 1467 1467 1467 1467 1468 1468 1469 1469 1469 1469 1470 1470 1471
1482 1484 1483 1481 1478 1479 1479 1476 1477 1478 1477 1475 1471 1468 1462 1462 1462 1462 1463 1463 1463 1464 1464 1464 1464 1464 1464 1464 1464 1464 1464 1464 1464 1464 1464 1465 1465 1465 1466 1465 1465 1466 1466 1467
1482 1484 1483 1480 1478 1479 1477 1470 1470 1471 1469 1469 1468 1463 1460 1461 1460 1461 1461 1461 1461 1461 1462 1462 1461 1461 1461 1461 1461 1461 1461 1461 1461 1461 1461 1461 1461 1462 1462 1462 1462 1462 1462 1462
1481 1482 1482 1480 1480 1480 1465 1459 1460 1462 1462 1462 1460 1458 1458 1458 1458 1458 1458 1458 1458 1459 1459 1459 1459 1458 1458 1458 1458 1458 1457 1457 1457 1457 1457 1458 1458 1458 1458 1458 1458 1458 1458 1458
1476 1479 1479 1479 1476 1468 1460 1458 1458 1461 1460 1456 1457 1456 1456 1456 1456 1456 1456 1456 1456 1457 1456 1456 1456 1455 1455 1454 1454 1454 1454 1454 1454 1454 1454 1454 1454 1454 1454 1454 1454 1454 1454 1454
1475 1477 1479 1475 1473 1467 1458 1456 1455 1459 1460 1453 1452 1453 1453 1454 1458 1455 1454 1454 1454 1454 1454 1453 1452 1452 1451 1451 1451 1450 1450 1450 1450 1450 1450 1450 1450 1450 1450 1450 1451 1451 1451 1451
1475 1475 1475 1473 1470 1463 1456 1454 1456 1462 1458 1451 1450 1450 1451 1452 1453 1452 1452 1451 1451 1451 1450 1450 1449 1448 1448 1447 1447 1446 1446 1446 1446 1446 1446 1447 1447 1447 1447 1447 1447 1447 1447 1447
1467 1468 1470 1468 1467 1462 1454 1454 1456 1454 1450 1449 1448 1448 1449 1449 1449 1449 1449 1448 1448 1447 1447 1446 1445 1444 1444 1444 1443 1442 1442 1442 1442 1442 1442 1443 1443 1443 1443 1443 1443 1443 1444 1444
1460 1459 1459 1459 1457 1451 1450 1449 1449 1449 1449 1448 1447 1447 1447 1446 1446 1446 1446 1445 1445 1444 1443 1442 1442 1441 1440 1440 1439 1438 1438 1438 1438 1438 1438 1439 1439 1439 1439 1439 1439 1439 1440 1440
1455 1454 1455 1455 1450 1447 1447 1447 1447 1447 1447 1446 1446 1445 1445 1444 1444 1443 1443 1442 1441 1440 1440 1439 1438 1437 1436 1436 1435 1435 1435 1435 1435 1434 1434 1434 1435 1435 1435 1436 1436 1436 1436 1437
1450 1451 1452 1452 1448 1445 1444 1444 1444 1444 1444 1443 1443 1443 1442 1441 1441 1440 1439 1438 1437 1436 1436 1435 1434 1433 1432 1432 1431 1431 1431 1431 1430 1430 1431 1431 1431 1431 1432 1432 1433 1433 1433 1434
1446 1447 1448 1445 1442 1443 1441 1441 1442 1441 1441 1440 1440 1439 1438 1438 1437 1436 1435 1434 1433 1432 1432 1431 1430 1429 1429 1428 1427 1427 1427 1427 1427 1426 1427 1427 1427 1428 1428 1429 1429 1430 1431 1432